Terminal Aerodrome Forecast
Issued by NWS Chicago, IL

Home | Current Version | Previous Version | Text Only | Print | Product List | Glossary Off
Versions: 1 2 3 4 5 6 7 8 9 10 11 12 13 14 15 16 17 18 19 20 21 22 23 24 25 26 27 28 29 30 31 32 33 34

000
FTUS43 KLOT 282200 AAB
TAFRFD
TAF AMD
KRFD 282202Z 2822/2918 10007KT P6SM -RA BKN080 OVC140
     FM282300 13007KT P6SM -RA SCT040 OVC060
     FM290300 15007KT P6SM OVC050 PROB30 2908/2911 TSRA OVC040CB
     FM291400 19008KT P6SM BKN050
     FM291700 20013G20KT P6SM SCT060 BKN200=

USA.gov is the U.S. government's official web portal to all federal, state and local government web resources and services.